INTELSAT 905 (IS-905)

Last updated on Sun Apr 12 2026 00:02:50 GMT+0000 (Coordinated Universal Time)

1 27438U 02027A 26101.49356395 .00000100 00000+0 00000+0 0 9998 2 27438 6.5860 70.5879 0003169 323.6511 205.9520 1.00271800 50699
UTC large
Height (km)
Speed (km/s)
/
Latitude / Longitude
Inclination (degrees)
Orbital Period (minutes)
Azimuth
Elevation
Range (km)
Doppler Factor

Next 0 passes for location: London (51.5072 / 0.1276)

Sorry there are no passes over London.
INTELSAT 905 (IS-905)